Location: Mountain View
(37.3861°N, 122.0839°W)
Time: 19:43:43
(UTC-07:00)

Envisat - Pass Details

Date: 13 May 2026
Orbit: 761 x 763 km, 98.4° (Epoch: 9 June)

Event Time Altitude Azimuth Distance (km) Brightness Sun altitude
Rises 04:52:02 0° 356° (N) 3,230 6.7 -12.7°
Reaches altitude 10° 04:54:52 10° 340° (NNW) 2,299 5.7 -12.3°
Maximum altitude 04:58:30 20° 294° (WNW) 1,693 4.5 -11.7°
Enters shadow 05:01:17 13° 256° (WSW) 2,067 4.6 -11.2°
